www.pogodaiklimat.ru

Погода и климат >> Архив погоды >> Австралия >> Rabbit Flat


ПОГОДА в Rabbit Flat

  • Прогноз погоды в Rabbit Flat
  • Монитор погоды в Rabbit Flat
  • Климат города

АРХИВ ПОГОДЫ в Rabbit Flat

Время (UTC), дата Ветер
(напр.,м/с)
 
Видим.   Явления Облачность Т
(С)
Тd
(С)
f
(%)
Тe
(С)
Тes
(С)
Комфортность P
(гПа)
Po
(гПа)
Тmin
(С)
Tmax
(С)
R
(мм)
R24
(мм)
S
(см)
08 10.12 В 5 н/о н/о +42.1 -2.9 6 +38 +38 очень
жарко
1002.3 965.2
09 10.12 В 4 н/о н/о +41.3 -3.4 6 +37 +37 очень
жарко
1002.3 965.3
11 10.12 ЮВ 3 н/о н/о +33.1 -0.1 12 +30 +30 жарко 1003.7 966.6
12 10.12 ЮВ 3 н/о н/о +31.8 0.0 13 +29 +29 жарко 1003.6 966.6
14 10.12 СВ 2 н/о н/о +26.6 +2.5 21 +25 +25 комфорт 1004.2 967.1 +44.3
15 10.12 СЗ 2 н/о н/о +26.3 +2.9 22 +25 +25 комфорт 1003.9 966.8
17 10.12 З 2 н/о н/о +24.2 +5.1 29 +24 +24 комфорт 1003.0 965.9
18 10.12 ЮВ 3 н/о н/о +24.2 +4.6 28 +24 +24 комфорт 1003.0 966.0
20 10.12 ЮВ 2 н/о н/о +23.4 +4.4 29 +23 +23 комфорт 1004.5 967.4
21 10.12 В 2 н/о н/о +22.8 +5.3 32 +23 +23 комфорт 1004.8 967.7
23 10.12 СВ 4 н/о н/о +37.4 +2.0 11 +34 +34 очень
жарко
1005.9 968.7
00 11.12 СВ 4 н/о н/о +39.2 +3.4 11 +36 +36 очень
жарко
1005.9 968.7
02 11.12 СВ 4 н/о н/о +42.0 +2.6 9 +39 +39 очень
жарко
1004.4 967.3 +22.7
03 11.12 В 5 н/о н/о +43.9 +4.0 9 +41 +41 опасность
перегрева
1004.0 966.9
06 11.12 С 4 н/о н/о +43.5 +2.1 8 +40 +40 очень
жарко
1001.1 964.1
08 11.12 Ю 3 н/о н/о +43.6 +0.3 7 +40 +40 очень
жарко
1000.5 963.5
09 11.12 ЮВ 4 н/о н/о +43.0 -0.1 7 +39 +39 очень
жарко
1000.8 963.8
11 11.12 В 2 н/о н/о +35.7 +1.9 12 +32 +32 жарко 1002.1 965.0
12 11.12 СВ 2 н/о н/о +34.3 +1.9 13 +31 +31 жарко 1002.4 965.4
14 11.12 З 3 н/о н/о +29.5 +5.6 22 +28 +28 жарко 1002.4 965.3 +45.1
15 11.12 З 3 н/о н/о +29.5 +5.6 22 +28 +28 жарко 1002.1 965.1
17 11.12 С 1 н/о н/о +26.2 +6.3 28 +26 +26 жарко 1000.7 963.7
18 11.12 СЗ 2 н/о н/о +26.1 +6.7 29 +26 +26 жарко 1000.3 963.4
20 11.12 ЮВ 2 н/о н/о +24.9 +7.5 33 +25 +25 комфорт 1001.0 964.0
21 11.12 ЮВ 3 н/о н/о +26.2 +7.7 31 +26 +26 жарко 1001.6 964.6
23 11.12 С 4 н/о н/о +39.4 +3.5 11 +36 +36 очень
жарко
1003.0 965.9
00 12.12 С 6 н/о н/о +40.4 +4.3 11 +37 +37 очень
жарко
1002.8 965.8
02 12.12 С 4 н/о н/о +43.0 +3.4 9 +40 +40 очень
жарко
1001.2 964.2 +24.5
03 12.12 СВ 4 н/о н/о +45.0 +3.2 8 +42 +42 опасность
перегрева
1000.7 963.7
05 12.12 В 4 н/о н/о +45.5 +1.6 7 +42 +42 опасность
перегрева
998.6 961.7
06 12.12 СВ 3 н/о н/о +46.1 +2.1 7 +43 +43 опасность
перегрева
998.4 961.5
08 12.12 С 2 н/о н/о +44.2 +0.7 7 +41 +41 опасность
перегрева
998.2 961.3
09 12.12 В 3 н/о н/о +44.0 +2.4 8 +41 +41 опасность
перегрева
998.1 961.2
11 12.12 С 1 н/о н/о +34.7 +3.3 14 +32 +32 жарко 999.1 962.2
12 12.12 В 2 н/о н/о +35.6 +5.0 15 +33 +33 жарко 999.6 962.7
14 12.12 С 2 н/о н/о +35.4 +7.5 18 +33 +33 жарко 1000.3 963.3 +47.1
15 12.12 СВ 2 н/о н/о +35.7 +6.9 17 +33 +33 жарко 1000.2 963.3
17 12.12 В 4 н/о н/о +35.8 +7.8 18 +34 +34 очень
жарко
999.0 962.1
18 12.12 СВ 3 н/о н/о +34.8 +9.3 21 +33 +33 жарко 999.2 962.3
20 12.12 С 5 н/о н/о +33.8 +11.6 26 +34 +34 очень
жарко
1000.4 963.4
21 12.12 СВ 4 н/о н/о +33.5 +11.4 26 +33 +33 жарко 1000.4 963.5
23 12.12 С 5 н/о н/о +37.9 +15.1 26 +39 +39 очень
душно
1001.7 964.7
00 13.12 СВ 5 н/о н/о +39.2 +15.5 25 +41 +41 опасность
перегрева
1002.0 965.0
02 13.12 СВ 6 н/о н/о +42.0 +12.8 18 +42 +42 опасность
перегрева
1001.3 964.3 +33.6
03 13.12 В 4 н/о н/о +43.4 +12.1 16 +43 +43 опасность
перегрева
1001.0 964.0
05 13.12 СВ 5 н/о н/о +43.0 +10.8 15 +42 +42 опасность
перегрева
998.3 961.4
06 13.12 СВ 6 н/о н/о +42.3 +10.3 15 +41 +41 опасность
перегрева
998.3 961.4
08 13.12 Ю 13 н/о н/о +29.5 +20.1 57 +36 +36 очень
душно
1002.6 965.5
09 13.12 В 10 н/о н/о +27.7 +13.9 43 +35 +35 очень
душно
1002.0 965.0
11 13.12 СВ 4 н/о н/о +29.0 +18.4 53 +34 +34 очень
душно
1003.2 966.1
12 13.12 СВ 5 н/о н/о +28.9 +18.7 54 +34 +34 очень
душно
1003.2 966.2
14 13.12 С 3 н/о н/о +27.3 +20.1 65 +34 +34 очень
душно
1003.9 966.8 +44.9
15 13.12 С 3 н/о н/о +27.2 +20.3 66 +34 +34 очень
душно
1003.4 966.4
17 13.12 Ю 3 н/о н/о +25.0 +21.5 81 +32 +32 очень
душно
1003.8 966.7
18 13.12 Ю 3 н/о н/о +25.1 +21.2 79 +32 +32 очень
душно
1003.5 966.5
20 13.12 В 2 н/о н/о +24.2 +21.9 87 +31 +31 очень
душно
1005.1 967.9
21 13.12 В 2 н/о н/о +24.6 +22.3 87 +32 +32 очень
душно
1005.4 968.2
23 13.12 В 3 н/о н/о +30.9 +19.3 50 +37 +37 очень
душно
1006.3 969.1
00 14.12 В 4 н/о н/о +32.3 +18.8 45 +37 +37 очень
душно
1006.0 968.8
02 14.12 СВ 4 н/о н/о +35.4 +14.6 29 +37 +37 очень
душно
1004.0 966.9 +24.1
03 14.12 В 3 н/о н/о +36.5 +13.3 25 +37 +37 очень
жарко
1003.5 966.5
05 14.12 Ю 2 н/о н/о +38.3 +10.6 19 +37 +37 очень
жарко
1001.4 964.4
06 14.12 ЮЗ 3 н/о н/о +39.8 +10.2 17 +38 +38 очень
жарко
1001.2 964.2
08 14.12 В 2 н/о н/о +38.9 +6.6 14 +36 +36 очень
жарко
1000.5 963.5
09 14.12 Ю 4 н/о н/о +38.5 +7.3 15 +36 +36 очень
жарко
1000.7 963.7
11 14.12 СВ 3 н/о н/о +33.6 +10.2 24 +33 +33 жарко 1002.1 965.0
12 14.12 СВ 3 н/о н/о +32.7 +11.3 27 +33 +33 жарко 1002.2 965.2
14 14.12 С 2 н/о н/о +29.3 +10.4 31 +29 +29 жарко 1001.7 964.7 +40.5
15 14.12 С 2 н/о н/о +29.1 +11.6 34 +30 +30 жарко 1001.7 964.7
17 14.12 Ю 2 н/о н/о +28.1 +11.2 35 +29 +29 жарко 1001.5 964.5
18 14.12 Ю 3 н/о н/о +27.4 +10.6 35 +28 +28 жарко 1001.3 964.3
20 14.12 Ю 3 н/о н/о +25.0 +8.5 35 +25 +25 комфорт 1002.9 965.8
21 14.12 Ю 3 н/о н/о +26.1 +8.1 32 +26 +26 жарко 1003.1 966.1
23 14.12 ЮВ 4 н/о н/о +34.1 +11.3 25 +34 +34 очень
жарко
1003.6 966.5
00 15.12 В 4 н/о н/о +34.4 +13.8 29 +35 +35 очень
жарко
1003.6 966.6
02 15.12 ЮЗ 3 н/о н/о +38.3 +14.2 24 +39 +39 очень
душно
1002.3 965.2 +24.5
03 15.12 СВ 3 н/о н/о +38.4 +13.6 23 +39 +39 очень
душно
1001.8 964.8
05 15.12 С 4 н/о н/о +42.2 +6.9 12 +40 +40 очень
жарко
999.3 962.3
06 15.12 СЗ 4 н/о н/о +42.5 +7.1 12 +40 +40 очень
жарко
999.0 962.1
08 15.12 Ю 7 н/о н/о +41.9 -0.9 7 +38 +38 очень
жарко
998.6 961.7
09 15.12 Ю 6 н/о н/о +41.3 +0.5 8 +38 +38 очень
жарко
998.9 962.0
11 15.12 Ю 3 н/о н/о +33.6 -0.9 11 +30 +30 жарко 1000.5 963.5
12 15.12 Ю 3 н/о н/о +31.8 0.0 13 +29 +29 жарко 1000.7 963.7
14 15.12 Ю 4 н/о н/о +31.5 -1.3 12 +28 +28 жарко 1002.1 965.0 +43.3
15 15.12 Ю 3 н/о н/о +28.1 -0.1 16 +26 +26 жарко 1002.1 965.1
17 15.12 ЮВ 3 н/о н/о +25.6 +1.7 21 +24 +24 комфорт 1001.8 964.8
18 15.12 ЮВ 2 н/о н/о +24.2 +1.8 23 +23 +23 комфорт 1001.8 964.8
20 15.12 СВ 3 н/о н/о +24.0 +6.7 33 +24 +24 комфорт 1003.4 966.3
21 15.12 СЗ 2 н/о н/о +24.1 +8.1 36 +25 +25 комфорт 1003.6 966.6
23 15.12 С 5 н/о н/о +33.5 +19.6 44 +39 +39 очень
душно
1004.0 966.9
00 16.12 СЗ 5 н/о н/о +35.0 +10.5 23 +41 +41 опасность
перегрева
1003.9 966.8
02 16.12 С 3 н/о н/о +40.0 +10.3 17 +39 +39 очень
жарко
1002.6 965.5 +22.5
03 16.12 СЗ 4 н/о н/о +41.3 +9.5 15 +40 +40 очень
жарко
1002.1 965.1
05 16.12 В 4 н/о н/о +43.9 +5.5 10 +41 +41 опасность
перегрева
1000.1 963.1
06 16.12 ЮЗ 4 н/о н/о +42.3 +5.7 11 +40 +40 очень
жарко
1000.0 963.1
08 16.12 Ю 3 н/о н/о +42.3 +2.8 9 +39 +39 очень
жарко
999.3 962.3
09 16.12 Ю 2 н/о н/о +41.7 +3.9 10 +39 +39 очень
жарко
999.3 962.4
11 16.12 В 3 н/о н/о +37.3 +5.3 14 +35 +35 очень
жарко
1001.1 964.1
12 16.12 СВ 3 н/о н/о +36.4 +6.6 16 +34 +34 очень
жарко
1001.4 964.4
14 16.12 З 5 н/о н/о +32.7 +10.1 25 +32 +32 жарко 1002.1 965.0 +45.2
15 16.12 З 3 н/о н/о +36.7 +8.5 18 +35 +35 очень
жарко
1002.3 965.3
17 16.12 СЗ 5 н/о н/о +33.6 +9.6 23 +33 +33 жарко 1001.2 964.2
18 16.12 СЗ 4 н/о н/о +33.0 +10.9 26 +33 +33 жарко 1001.3 964.3
20 16.12 СЗ 4 н/о н/о +30.7 +14.3 37 +33 +33 душно 1002.7 965.6
21 16.12 СЗ 4 н/о н/о +30.9 +14.5 37 +33 +33 душно 1003.0 966.0
23 16.12 З 7 н/о н/о +36.5 +14.5 27 +38 +38 очень
душно
1004.0 966.9
00 17.12 З 7 н/о н/о +37.4 +14.6 26 +38 +38 душно 1004.0 966.9
03 17.12 З 5 н/о н/о +41.3 +9.5 15 +40 +40 очень
жарко
1002.2 965.2
06 17.12 З 3 н/о н/о +42.2 +8.1 13 +40 +40 очень
жарко
1000.0 963.1

 

Местоположение метеостанции Rabbit Flat (Северная территория, Австралия): широта -20.18 долгота 130.02 высота над уровнем моря 339 м.

В архиве по умолчанию представлена погода в Rabbit Flat за последнюю неделю. Архивные данные за месяц целиком и за предыдущие месяцы, начиная с января 2011 года, Вы можете получить, выбрав интересующий диапазон дат из раскрывающегося списка и нажав кнопку "Ввод!".


*Определитесь, кто Вы:
робот инопланетянин человек

Внимание! Время в таблицах - всемирное. Для получения местного времени необходимо прибавить поправку, которая в Rabbit Flat равна 9.5 ч.

Смотрите также архив погоды в соседних городах и на ближайших метеорологических станциях:

Погода в Lajamanu (Северная территория, Австралия) (216 км)
Погода в Halls Creek Airport (Западная Австралия, Австралия) (329 км)
Погода в Wulungurru (Северная территория, Австралия) (350 км)
Погода в Argyle Aero (Западная Австралия, Австралия) (428 км)
Погода в Victoria River Downs (Северная территория, Австралия) (433 км)
Погода в Tennant Creek Airport (Северная территория, Австралия) (439 км)
Погода в Territory Grape Farm (Северная территория, Австралия) (451 км)
Погода в Kununurra (Западная Австралия, Австралия) (509 км)
Погода в Fitzroy Crossing Aero (Западная Австралия, Австралия) (519 км)
Погода в Delamere Weapons Range (Северная территория, Австралия) (532 км)

Пояснения к столбцам:

Ветер - указаны скорость ветра в м/с - средняя за 10 мин, порывы в срок и между сроками (в фигурных скобках) и направление, откуда дует ветер: С - северный, СВ - северо-восточный, В - восточный, ЮВ - юго-восточный, Ю - южный, ЮЗ - юго-западный, З - западный, СЗ - северо-западный.
Видимость - горизонтальная дальность видимости в метрах или километрах. При видимости от 1 до 10 км при отсутствии осадков обычно наблюдается дымка, при ухудшении видимости до 1 км и менее - туман. В сухую погоду видимость может ухудшаться дымом, пылью или мглою.
Явления - указаны атмосферные явления, наблюдавшиеся в срок или в последний час перед сроком; фигурными скобками обозначены явления, наблюдавшиеся между сроками (за 1-3 часа до срока); квадратными скобками обозначены град или гололедные отложения с указанием их диаметра в мм.
Облачность - указаны через наклонную черту общая и нижняя облачность в баллах и высота нижней границы облаков в метрах; квадратными скобками обозначены формы облаков: Ci - перистые, Cs - перисто-слоистые, Cc - перисто-кучевые, Ac - высококучевые, As - высокослоистые, Sc - слоисто-кучевые, Ns - слоисто-дождевые, Cu - кучевые, Cb - кучево-дождевые. Подробнее классификацию облаков см. в Атласе облаков (PDF).
T - Температура воздуха - температура, измеренная на высоте 2 м над землей.
Td - Температура точки росы - температура, при понижении до которой содержащийся в воздухе водяной пар достигнет насыщения.
f - Относительная влажность воздуха - влажноcть воздуха, измеренная на высоте 2 м над землей.
Te - Эффективная температура - температура, которую ощущает одетый по сезону человек в тени. Характеристика душности погоды. При расчете учитывается влияние влажности воздуха и скорости ветра на теплоощущения человека.
Tes - Эффективная температура на солнце - температура, которую ощущает человек, с поправкой на солнечный нагрев. Характеристика знойности погоды. Зависит от высоты солнца над горизонтом, облачности и скорости ветра. Ночью, в пасмурную погоду, а также при ветре 12 м/с и более поправка равна нулю.
P - Атмосферное давление - приведенное к уровню моря атмосферное давление.
Po - Атмосферное давление - измеренное на уровне метеостанции атмосферное давление.
Tmin - Минимальная температура - минимум температуры воздуха на высоте 2 м над землей.
Tmax - Максимальная температура - максимум температуры воздуха на высоте 2 м над землей.
R - Количество осадков - Количество выпавших осадков за период времени, мм. При наведении курсора мыши на число - период времени, за который выпало указанное количество осадков.
R24 - Количество осадков - Количество выпавших осадков за 24 часа, мм.
S - Снежный покров - Высота снежного покрова, см. При наведении курсора мыши на число - состояние снежного покрова и степень покрытия местности в баллах.